Probability
0 0 0 0 0 0 0 0 0 0 1 2 2 1 0 0 0 1 0 0 1 2 3 3 5 8 9 10 11 10 8 9 10 8 5 3 2 3 2 1 0 0 0 0
0 0 0 0 0 0 0 0 0 0 1 3 2 1 0 0 1 1 1 1 2 3 4 5 7 10 12 12 11 10 9 8 7 6 4 3 3 2 2 1 0 0 0 0
0 0 0 0 0 0 0 0 0 0 1 2 2 1 1 1 1 2 2 2 2 4 6 8 11 14 16 16 13 10 9 7 5 4 3 3 3 3 2 1 0 1 1 1
0 0 0 0 0 0 0 0 0 0 1 1 2 2 2 2 2 3 3 2 3 5 8 11 14 17 20 19 14 11 10 8 5 4 4 4 3 3 2 1 1 2 2 1
0 0 0 0 0 0 0 0 0 0 0 0 1 2 3 2 3 5 5 3 4 6 11 15 16 18 19 18 13 11 12 11 8 7 6 5 4 3 1 1 2 3 2 1
0 0 0 0 0 0 0 0 0 0 0 0 0 1 2 3 4 5 6 5 6 8 13 17 18 17 17 17 15 14 14 13 10 9 8 6 4 3 1 2 3 4 2 1
0 0 0 0 0 0 0 0 0 0 0 0 0 0 2 4 5 5 6 7 8 9 12 17 19 18 17 18 19 18 17 15 13 11 10 7 5 3 2 3 4 5 4 3
0 0 0 0 1 1 1 0 0 0 0 0 0 1 2 3 4 6 7 8 9 9 11 15 18 18 18 19 20 20 19 18 16 14 10 7 5 3 2 2 4 5 5 5
0 0 0 0 1 2 2 1 0 0 0 0 0 1 1 1 3 6 7 9 10 10 12 14 16 18 19 19 21 22 22 20 19 16 11 7 5 3 2 3 4 5 5 6
0 0 0 0 2 3 2 1 0 0 0 0 0 1 0 1 3 5 7 10 13 13 13 14 15 17 18 19 22 23 22 20 19 16 12 10 7 5 4 5 7 6 7 8
0 0 0 0 1 2 2 1 0 0 0 0 1 1 1 1 3 5 8 11 12 13 14 14 16 16 16 18 20 21 21 21 20 18 15 14 12 10 8 9 11 11 11 11
0 0 0 0 0 1 1 0 0 0 0 0 1 2 1 2 3 5 8 10 11 13 14 14 16 18 17 17 18 21 23 23 23 21 19 17 16 15 14 13 14 15 15 14
0 0 0 0 0 0 0 0 0 0 0 1 2 2 2 3 3 4 8 10 12 14 14 13 17 21 20 19 19 22 26 27 26 24 21 18 17 18 18 18 18 17 17 17
0 0 0 0 0 0 0 0 0 0 1 2 3 1 1 3 2 3 7 12 15 19 18 16 18 22 22 20 19 23 29 31 29 27 23 20 18 18 19 20 20 18 18 19
0 0 0 0 0 0 0 0 0 1 1 3 3 1 1 3 4 5 8 13 19 23 24 23 23 25 25 23 21 24 31 34 32 29 24 20 18 17 18 19 18 17 19 20
0 0 0 0 0 0 0 0 1 2 3 3 2 1 3 6 9 10 11 14 20 27 30 32 32 33 32 30 26 27 31 34 34 30 24 18 17 18 17 16 15 16 18 18
0 0 0 0 0 0 1 1 1 3 4 4 2 3 6 11 15 16 15 16 22 29 35 37 37 38 36 33 31 29 30 31 32 30 25 20 19 19 18 15 14 16 18 18
0 0 0 0 1 1 1 0 1 3 4 5 5 8 13 17 20 21 19 19 23 30 34 36 37 36 33 32 31 30 28 26 27 27 26 25 23 22 21 18 18 19 19 19
0 0 0 0 1 1 0 0 1 3 4 6 10 13 16 20 24 24 22 21 23 26 28 30 32 33 31 30 31 30 26 23 22 24 26 28 27 26 27 25 22 20 18 17
0 0 0 0 0 0 0 0 1 2 4 7 11 13 15 18 23 23 20 20 22 22 22 24 27 30 29 28 30 30 26 22 20 22 25 27 27 27 29 28 24 20 18 17
0 0 0 0 0 0 0 0 0 1 2 5 8 10 12 14 17 19 19 19 21 21 20 21 24 26 26 28 30 30 27 24 22 24 25 24 23 23 24 26 25 22 20 19
0 0 0 0 0 0 1 1 0 1 2 5 9 10 11 12 15 16 18 18 19 21 21 21 22 23 26 29 32 31 29 27 27 29 27 23 20 19 19 21 23 23 22 20
1 0 0 1 1 1 2 2 2 2 4 8 12 12 12 13 14 13 13 14 17 21 22 21 23 25 25 27 31 32 31 32 32 31 27 22 20 18 16 17 19 21 21 20
2 1 1 2 3 3 3 4 4 4 6 8 11 12 13 14 14 12 12 13 16 21 23 24 26 26 24 25 28 31 33 35 35 31 26 23 21 19 16 14 15 16 18 19
3 1 1 4 5 5 5 6 7 8 9 9 10 11 13 16 17 17 17 18 21 24 27 29 30 28 27 28 30 32 34 36 35 31 26 23 23 21 18 15 14 14 14 15
4 1 2 5 6 6 7 8 9 10 11 12 12 12 13 17 19 20 20 22 25 27 31 34 33 32 32 32 33 34 35 35 34 30 26 24 23 23 20 18 16 12 10 11
Wind_Speed
3 3 3 7 6 6 5 4 5 5 6 6 7 9 12 11 10 10 10 11 11 11 10 10 10 10 9 7 6 6 5 5 4 3 2 2 1 1 1 1 2 2 2 2
4 4 9 6 4 3 3 3 4 2 4 5 6 7 10 12 13 13 13 13 13 11 9 10 10 10 9 9 7 7 6 5 5 3 3 2 2 2 2 1 1 2 2 2
6 8 5 4 4 3 4 6 6 5 2 4 6 1 5 7 7 8 11 11 12 15 14 12 11 10 10 10 9 8 7 6 5 4 3 2 1 1 1 0 1 1 2 3
5 6 4 3 4 4 4 5 6 5 4 1 4 2 5 7 6 8 10 10 12 13 13 12 12 11 12 11 10 8 8 6 5 5 4 4 3 2 3 2 2 1 2 2
5 4 4 5 6 5 4 2 4 4 4 2 1 3 5 3 6 10 11 11 12 13 14 14 14 13 12 11 10 8 8 7 6 5 5 4 3 2 2 1 1 1 1 2
6 5 4 6 4 2 3 3 5 5 4 0 3 3 4 5 10 10 10 11 11 11 12 12 12 11 9 9 9 9 8 7 6 6 5 5 5 4 3 2 2 2 1 1
5 6 4 2 1 4 3 5 4 5 4 4 2 2 6 8 9 12 12 11 11 11 11 11 11 11 10 10 10 9 9 7 7 7 6 6 5 5 5 4 3 3 2 2
3 6 5 4 6 4 2 8 8 5 4 4 2 3 6 6 7 8 8 9 10 11 12 12 14 13 13 13 12 10 10 8 8 7 6 5 5 4 3 4 3 3 3 3
5 6 6 5 4 7 3 3 8 8 2 0 3 3 5 1 3 5 6 7 10 12 13 13 13 13 12 13 13 12 11 9 8 7 6 5 5 4 4 3 3 3 3 3
6 4 6 4 1 1 7 7 6 6 5 2 3 2 4 3 4 5 7 8 9 9 10 11 12 13 12 12 11 11 11 10 9 8 7 6 5 5 5 4 4 3 3 2
4 4 5 3 2 4 1 3 5 5 6 7 3 6 7 8 8 8 8 9 9 10 9 10 10 11 11 10 10 10 10 9 8 8 7 6 5 6 5 4 4 4 3 3
1 5 3 6 6 5 6 6 7 6 4 5 5 7 5 7 7 8 8 9 10 10 10 9 10 10 10 10 9 9 9 9 9 8 7 7 6 5 5 5 4 4 4 3
1 5 1 7 8 4 2 2 5 6 5 4 4 6 3 3 4 5 7 8 9 9 7 8 9 9 10 10 9 9 9 9 8 8 8 7 6 6 6 6 5 4 4 4
4 4 6 7 6 2 1 1 2 6 4 4 6 6 3 3 4 4 5 7 8 8 8 8 9 8 8 8 8 9 9 9 8 8 8 8 8 8 7 6 5 5 5 4
5 2 1 4 4 1 1 1 1 3 7 8 8 7 7 7 7 7 6 7 7 7 6 7 8 8 7 7 7 7 8 8 8 8 8 8 8 7 6 5 5 5 5 5
5 2 2 3 2 2 2 0 1 2 3 5 5 4 6 4 4 4 6 7 7 7 6 6 6 7 7 7 6 6 6 7 7 8 8 8 6 6 6 6 5 5 5 4
2 3 3 3 4 4 2 2 2 2 2 5 5 6 3 5 6 6 6 7 7 7 6 6 7 8 8 8 8 7 6 5 6 7 7 6 6 6 6 6 5 5 5 4
3 2 2 0 3 2 7 2 3 4 1 1 2 2 4 5 5 3 4 6 6 6 5 6 6 7 6 6 6 6 6 6 6 6 6 5 5 5 5 5 5 4 3 3
6 5 2 2 1 3 4 3 1 3 1 2 3 3 4 5 6 4 1 4 6 6 5 5 5 6 5 6 7 7 6 6 5 5 5 5 6 5 5 5 5 4 3 3
3 5 5 3 2 3 5 5 1 5 1 3 3 4 3 5 4 2 2 3 4 4 4 3 3 4 5 5 6 7 6 6 6 6 6 6 5 5 6 6 5 3 3 4
2 2 3 3 2 5 6 6 3 4 4 3 2 3 3 3 4 4 2 2 3 4 4 4 4 4 4 5 7 7 6 6 5 4 5 5 5 5 5 4 3 3 3 2
3 3 3 4 3 7 5 3 3 4 2 1 2 2 3 2 2 2 3 3 3 3 4 4 4 3 3 4 6 6 6 5 4 4 4 4 4 4 3 3 3 3 3 3
2 5 5 6 6 5 3 1 1 3 3 1 1 1 3 2 2 2 2 3 3 3 3 3 4 3 2 4 5 5 4 4 4 4 4 3 4 3 3 3 3 2 2 3
3 1 2 1 2 2 2 3 3 3 3 2 1 2 3 3 2 2 1 1 2 2 3 3 4 4 3 3 3 4 3 4 4 4 4 4 4 3 2 2 3 3 3 3
3 2 2 1 2 3 4 3 3 4 4 3 2 2 2 3 2 2 1 1 2 2 3 3 4 4 4 4 3 4 4 5 5 4 4 3 3 4 3 2 2 3 4 4
2 2 3 5 5 2 4 3 1 2 3 3 2 2 1 2 2 2 0 1 1 2 3 3 3 3 3 4 3 4 5 6 6 5 4 4 4 3 3 2 1 1 1 3
Wind_Direction
342 70 227 223 201 192 178 186 213 217 190 158 168 166 178 180 181 178 179 182 179 182 181 175 171 167 160 159 156 157 158 162 150 138 142 141 157 177 169 179 186 166 151 141
9 270 238 222 211 210 185 191 217 229 188 146 164 181 185 183 188 188 185 185 180 178 177 175 172 168 165 167 166 165 169 169 164 161 160 164 165 180 184 190 182 179 155 152
209 243 253 217 215 212 242 193 195 182 130 99 119 160 204 202 196 194 193 187 180 180 181 179 175 175 171 172 174 174 176 173 174 165 142 131 90 57 57 211 217 208 177 170
244 244 238 231 227 188 252 219 177 153 120 180 138 175 250 208 196 202 199 190 187 185 181 180 177 177 177 179 175 172 173 172 174 165 156 159 165 180 206 202 205 210 192 182
250 224 216 230 234 198 218 157 130 139 132 90 52 122 275 174 198 213 204 194 189 188 183 183 181 180 179 177 175 174 170 172 172 167 169 169 174 187 191 181 182 194 205 199
247 250 216 220 245 206 159 62 47 59 78 58 239 153 260 205 204 204 201 195 188 186 185 185 183 175 174 175 176 175 172 177 175 172 171 174 179 180 171 186 191 201 216 227
296 288 266 216 304 334 81 94 40 9 17 250 252 155 237 223 201 193 191 191 185 185 179 181 180 175 175 178 180 179 177 180 181 179 182 183 182 180 184 192 191 188 200 216
215 272 251 211 186 191 192 140 154 180 211 265 335 217 250 225 191 180 176 177 176 182 182 185 185 183 184 183 184 182 183 184 183 185 191 189 181 180 190 193 188 192 199 207
185 248 271 239 199 156 159 165 162 135 146 32 287 280 308 236 149 158 155 165 178 180 183 188 186 184 186 185 185 183 183 184 186 187 185 187 184 179 190 195 189 192 195 199
169 235 276 279 29 319 160 153 106 117 141 226 291 266 228 219 195 177 165 175 182 181 179 185 186 185 187 187 185 183 183 185 185 185 186 185 187 187 191 187 195 196 197 196
151 175 292 336 193 201 138 127 124 126 151 155 209 263 223 193 190 182 182 182 177 178 184 185 185 187 185 182 181 182 186 186 187 188 187 185 185 192 192 196 204 201 198 194
160 132 242 262 258 194 161 163 146 151 195 161 163 256 245 189 185 178 182 181 178 179 184 183 181 180 180 180 180 183 185 187 190 187 183 186 186 186 191 201 204 197 197 197
104 109 81 329 335 358 91 150 142 129 122 145 161 254 286 166 180 183 175 178 177 175 175 175 175 178 181 183 184 184 186 188 187 181 183 187 189 191 197 202 200 195 192 194
100 112 158 192 220 241 295 327 131 118 138 184 205 219 259 200 187 190 176 178 173 171 167 169 174 176 180 183 184 185 186 184 181 180 186 194 200 201 202 199 194 195 194 195
69 99 184 220 226 173 155 184 153 155 172 176 209 202 222 207 192 186 170 162 160 159 162 168 173 171 172 174 179 181 181 181 181 179 188 202 205 199 195 194 196 197 200 206
39 73 33 333 327 54 53 320 179 175 171 170 171 220 226 196 170 165 157 153 161 166 173 167 165 168 170 170 172 174 180 183 177 182 194 197 193 189 192 195 196 198 203 205
14 65 55 298 311 42 320 244 162 142 171 162 191 224 198 143 160 170 160 150 158 166 162 163 164 169 175 176 168 167 174 170 175 183 187 184 183 186 191 190 187 194 197 195
139 76 111 264 41 206 241 241 125 123 95 102 152 177 158 163 162 151 147 146 151 159 162 166 169 170 172 169 162 159 151 154 171 180 178 180 181 186 187 186 194 199 196 198
156 141 117 105 135 280 300 320 106 133 11 16 121 118 118 122 84 37 47 134 155 162 166 163 169 168 163 160 153 141 145 153 158 179 178 180 181 182 183 190 199 196 184 197
84 116 122 122 138 222 260 289 318 100 47 327 100 120 127 96 105 247 250 143 145 143 142 143 147 142 150 167 152 145 155 163 178 188 188 180 176 179 186 192 194 193 189 202
34 65 131 159 195 260 272 297 39 112 223 273 92 103 106 124 182 204 184 131 141 136 131 131 131 144 164 162 149 156 167 185 194 183 175 176 179 182 183 183 181 178 176 175
179 161 177 153 182 247 292 12 104 194 206 117 93 98 93 101 115 123 137 142 146 129 128 132 135 150 162 152 154 167 186 192 173 162 166 176 179 181 170 164 169 167 170 179
185 188 183 182 208 242 289 119 154 127 96 63 99 97 100 86 91 94 140 162 159 146 145 142 149 152 154 158 160 176 197 170 155 153 166 171 166 166 160 163 173 175 181 192
305 6 87 41 286 312 4 46 35 55 70 53 82 102 95 88 95 105 131 144 145 152 154 157 148 152 167 174 174 178 170 153 145 157 170 164 162 163 162 168 181 186 197 204
275 6 37 282 271 9 357 13 29 23 43 61 41 77 108 111 105 112 128 226 189 178 176 169 170 174 182 181 184 180 165 152 152 169 167 165 170 170 171 179 198 204 216 212
242 185 173 231 241 204 263 284 3 18 16 38 41 28 32 112 125 87 12 258 212 194 180 171 178 184 184 175 183 183 170 162 162 171 173 178 179 181 180 180 219 320 265 241